Content
SEND FEEDBACK

Daily
Averages
Monthly
Summary
United States of America

MALDEN, MISSOURI


Home > North America > United States > Missouri
Elevation: 295 feet     Latitude: 36 36N     Longitude: 089 59W

WEATHER
 
SELECT A DAY
Number of Records: 211,954;   Date Range: 1/1/95 - 11/27/14
 
SHARE

PRINT THIS DATA

[ ← Previous Day ]
WEATHER ALMANAC - APRIL 25, 2014
[ Next Day → ]
[ °C ]   °F
Weather ElementAverageHighLow
Temperature63.7 °F75.9 °F (1:53 pm)53.1 °F (6:53 am)
Dewpoint47 °F52 °F (1:02 am)39.9 °F (10:53 am)
Humidity58 %81 % (1:02 am)27 % (1:53 pm)
Barometer29.87 in29.98 in (11:53 am)29.71 in (1:02 am)
Wind Speed8.9 mph17.3 mph (2:53 am)
Wind Gust25.3 mph (2:53 am)
Weather ElementAverage
Visibility10 mi
Wind DirectionSSW (218.6 °)

Weather ElementTotal
Precipitation---
Heating Degree Days0.5 (Base 65)
Growing Degree Days14.5 (Base 50)
Averaged from 28 records on April 25, 2014
WEATHER CONDITIONS BREAKOUT
WIND DIRECTION BREAKOUT
WEATHER BY HOUR - APRIL 25, 2014
[ °C ]   °F
Local TimeTemperatureDewpointHumidityBarometerVisibilityWind DirectionWind SpeedGust SpeedPrecipitationEventsConditions
1:02 AM57.9 °F52.0 °F81 %29.71 in10.0 miWest (260°)6.9 mphScattered Clouds
1:12 AM59.0 °F52.0 °F78 %29.72 in10.0 miWest (270°)9.2 mphMostly Cloudy
1:53 AM57.9 °F52.0 °F81 %29.72 in10.0 miWest (280°)8.1 mphScattered Clouds
2:42 AM59.0 °F52.0 °F78 %29.73 in10.0 miWest (270°)11.5 mphOvercast
2:53 AM59.0 °F52.0 °F78 %29.74 in10.0 miWNW (300°)17.3 mph25.3 mphOvercast
3:12 AM59.0 °F51.1 °F75 %29.76 in10.0 miWNW (300°)13.8 mph23.0 mphOvercast
3:53 AM57.9 °F50.0 °F75 %29.76 in10.0 miWNW (290°)10.4 mph21.9 mphScattered Clouds
4:00 AM57.9 °F50.0 °F75 %29.78 in10.0 miWNW (300°)11.5 mphMostly Cloudy
4:53 AM57.0 °F48.0 °F72 %29.81 in10.0 miWNW (300°)9.2 mphMostly Cloudy
5:06 AM55.9 °F48.0 °F75 %29.82 in10.0 miWNW (300°)13.8 mphPartly Cloudy
5:53 AM54.0 °F46.0 °F75 %29.84 in10.0 miWNW (300°)8.1 mphClear
6:53 AM53.1 °F45.0 °F74 %29.88 in10.0 miWest (280°)8.1 mphClear
7:53 AM55.9 °F46.0 °F69 %29.92 in10.0 miWNW (300°)10.4 mphClear
8:53 AM60.1 °F44.1 °F55 %29.94 in10.0 miNW (320°)11.5 mphClear
9:53 AM63.0 °F43.0 °F48 %29.95 in10.0 miVariable4.6 mphClear
10:53 AM68.0 °F39.9 °F36 %29.97 in10.0 miNNW (340°)10.4 mphClear
11:53 AM71.1 °F42.1 °F35 %29.98 in10.0 miNorth (360°)13.8 mph18.4 mphClear
12:53 PM73.0 °F43.0 °F34 %29.96 in10.0 miNorth (10°)9.2 mphClear
1:53 PM75.9 °F39.9 °F27 %29.96 in10.0 miCalmClear
2:53 PM75.9 °F39.9 °F27 %29.94 in10.0 miCalmClear
3:53 PM75.0 °F45.0 °F34 %29.94 in10.0 miSE (130°)9.2 mphClear
4:53 PM75.0 °F46.9 °F37 %29.92 in10.0 miSSE (150°)12.7 mphClear
5:53 PM73.9 °F46.0 °F37 %29.92 in10.0 miSouth (170°)9.2 mphClear
6:53 PM71.1 °F48.9 °F45 %29.92 in10.0 miSSE (160°)6.9 mphClear
7:53 PM68.0 °F48.9 °F50 %29.91 in10.0 miSouth (180°)6.9 mphClear
8:53 PM66.0 °F48.0 °F52 %29.93 in10.0 miSouth (170°)5.8 mphClear
9:53 PM63.0 °F48.0 °F58 %29.95 in10.0 miSouth (180°)4.6 mphClear
10:53 PM61.0 °F48.0 °F62 %29.95 in10.0 miSSW (200°)5.8 mphClear
Hourly data recorded from KPOF, located miles away from Malden, Missouri







STORIES FROM OUR PARTNERS